FW3030 Weather Reports


Display with metric or nautical units.
time (UTC)temp
F
wind
direction
speed
MPH
gust
MPH
rain 1hr
in
rain 24hr
in
rain mn
in
humidity
%
barometer
mb
20260508064620 40 0 0.0 0.0 0.00 0.00 0.00 60 1007.9
20260508063112 41 0 0.0 2.0 0.00 0.00 0.00 59 1008.0
20260508061609 41 0 0.0 0.0 0.00 0.00 0.00 57 1008.1
20260508060111 41 0 0.0 0.0 0.00 0.00 0.00 55 1008.1
20260508054559 42 0 0.0 0.0 0.00 0.00 0.00 55 1008.2
20260508053100 42 0 0.0 0.0 0.00 0.00 0.00 54 1008.5
20260508051614 42 0 0.0 0.0 0.00 0.00 0.00 54 1008.5
20260508050104 43 0 0.0 0.0 0.00 0.00 0.00 53 1008.6
20260508044557 43 0 0.0 0.0 0.00 0.00 0.00 50 1008.6
20260508043100 44 0 0.0 0.0 0.00 0.00 0.00 50 1008.7
20260508041558 45 0 0.0 0.0 0.00 0.00 0.00 49 1008.8
20260508040105 45 0 0.0 0.0 0.00 0.00 0.00 48 1008.8
20260508034557 46 0 0.0 0.0 0.00 0.00 0.00 46 1008.9
20260508033101 47 0 0.0 0.0 0.00 0.00 0.00 44 1008.9
20260508031601 48 0 0.0 0.0 0.00 0.00 0.00 44 1009.0
20260508030104 48 0 0.0 0.0 0.00 0.00 0.00 43 1009.1
20260508024619 49 0 0.0 0.0 0.00 0.00 0.00 42 1009.0
20260508023058 51 0 0.0 1.0 0.00 0.00 0.00 39 1008.9
20260508021606 52 0 0.0 0.0 0.00 0.00 0.00 38 1008.9
20260508020126 54 0 0.0 0.0 0.00 0.00 0.00 36 1008.7
20260508014559 55 0 0.0 0.0 0.00 0.00 0.00 33 1008.6
20260508013059 56 0 0.0 2.0 0.00 0.00 0.00 31 1008.6
20260508011607 56 0 0.0 3.0 0.00 0.00 0.00 31 1008.5
20260508010101 57 0 1.0 7.0 0.00 0.00 0.00 30 1008.5
20260508004602 57 0 2.0 7.0 0.00 0.00 0.00 29 1008.5
20260508003058 58 281 2.0 9.0 0.00 0.00 0.00 29 1008.5
20260508001558 58 324 4.0 14.0 0.00 0.00 0.00 28 1008.5
20260508000100 59 260 3.0 12.0 0.00 0.00 0.00 28 1008.5
20260507234559 59 276 4.0 12.0 0.00 0.00 0.00 28 1008.7
20260507233100 59 232 3.0 11.0 0.00 0.00 0.00 27 1008.7
20260507231559 60 304 4.0 11.0 0.00 0.00 0.00 28 1008.6
20260507230112 60 299 4.0 10.0 0.00 0.00 0.00 29 1008.8
20260507224559 60 196 4.0 11.0 0.00 0.00 0.00 27 1008.9
20260507223057 60 236 5.0 14.0 0.00 0.00 0.00 29 1008.9
20260507221603 59 264 6.0 15.0 0.00 0.00 0.00 29 1009.1
20260507220059 59 267 2.0 13.0 0.00 0.00 0.00 29 1009.2
20260507214559 58 346 4.0 14.0 0.00 0.00 0.00 30 1009.2
20260507213107 60 220 7.0 13.0 0.00 0.00 0.00 29 1009.5
20260507211605 58 250 3.0 13.0 0.00 0.00 0.00 29 1009.5
20260507210110 58 298 7.0 13.0 0.00 0.00 0.00 29 1009.6
20260507204602 58 327 5.0 13.0 0.00 0.00 0.00 28 1009.5
20260507203125 59 269 3.0 10.0 0.00 0.00 0.00 30 1009.8
20260507201557 57 269 3.0 11.0 0.00 0.00 0.00 28 1009.9
20260507200101 58 228 5.0 12.0 0.00 0.00 0.00 28 1010.1
20260507194618 59 251 4.0 13.0 0.00 0.00 0.00 28 1010.2
20260507193103 59 296 3.0 9.0 0.00 0.00 0.00 29 1010.3
20260507191558 57 290 4.0 10.0 0.00 0.00 0.00 29 1010.5
20260507184558 56 240 5.0 12.0 0.00 0.00 0.00 31 1010.6
20260507183100 56 254 3.0 9.0 0.00 0.00 0.00 30 1010.8
20260507181559 57 263 5.0 15.0 0.00 0.00 0.00 28 1010.8
20260507180055 57 130 2.0 9.0 0.00 0.00 0.00 30 1011.0
20260507174602 56 266 5.0 14.0 0.00 0.00 0.00 29 1011.3
20260507173133 56 23 3.0 9.0 0.00 0.00 0.00 32 1011.4
20260507171601 55 0 4.0 9.0 0.00 0.00 0.00 32 1011.7
20260507170059 55 319 2.0 9.0 0.00 0.00 0.00 30 1011.6
20260507164559 55 264 4.0 10.0 0.00 0.00 0.00 30 1011.6
20260507163059 53 5 2.0 12.0 0.00 0.00 0.00 29 1011.8
20260507161612 52 245 1.0 10.0 0.00 0.00 0.00 34 1011.8
20260507160105 51 340 3.0 9.0 0.00 0.00 0.00 35 1012.1
20260507154558 50 319 2.0 6.0 0.00 0.00 0.00 36 1012.2
20260507153101 50 317 2.0 6.0 0.00 0.00 0.00 39 1012.2
20260507151603 48 139 1.0 8.0 0.00 0.00 0.00 40 1012.2
20260507150057 47 232 1.0 5.0 0.00 0.00 0.00 43 1012.1
20260507144612 47 269 1.0 5.0 0.00 0.00 0.00 44 1012.1
20260507143102 46 277 2.0 6.0 0.00 0.00 0.00 47 1012.3
20260507141603 44 275 0.0 7.0 0.00 0.00 0.00 52 1012.2
20260507140056 42 221 2.0 7.0 0.00 0.00 0.00 56 1012.3
20260507134557 40 290 1.0 6.0 0.00 0.00 0.00 63 1012.3
20260507133139 37 279 2.0 6.0 0.00 0.00 0.00 74 1012.3
20260507131559 35 0 0.0 3.0 0.00 0.00 0.00 82 1012.5
20260507130108 33 0 0.0 2.0 0.00 0.00 0.00 84 1012.5
20260507124607 31 0 0.0 3.0 0.00 0.00 0.00 84 1012.6
20260507123058 30 0 0.0 3.0 0.00 0.00 0.00 84 1012.7
20260507121603 29 0 0.0 2.0 0.00 0.00 0.00 83 1012.6
20260507120105 28 213 0.0 2.0 0.00 0.00 0.00 81 1012.5
20260507114610 27 0 0.0 0.0 0.00 0.00 0.00 79 1012.7
20260507113059 27 0 0.0 0.0 0.00 0.00 0.00 78 1012.6
20260507111603 27 0 0.0 0.0 0.00 0.00 0.00 77 1012.6
20260507104559 28 0 0.0 0.0 0.00 0.00 0.00 76 1012.7
20260507103100 28 0 0.0 0.0 0.00 0.00 0.00 76 1012.7
20260507101603 29 0 0.0 0.0 0.00 0.00 0.00 75 1012.7
20260507100058 29 0 0.0 0.0 0.00 0.00 0.00 74 1012.8
20260507094602 29 0 0.0 0.0 0.00 0.00 0.00 73 1012.9
20260507093057 30 0 0.0 0.0 0.00 0.00 0.00 73 1013.0
20260507091558 30 0 0.0 0.0 0.00 0.00 0.00 72 1012.9
20260507090108 30 0 0.0 0.0 0.00 0.00 0.00 71 1012.8
20260507084608 31 0 0.0 0.0 0.00 0.00 0.00 70 1012.8
20260507083114 31 0 0.0 0.0 0.00 0.00 0.00 69 1012.8
20260507081611 32 0 0.0 0.0 0.00 0.00 0.00 68 1012.8
20260507080111 33 0 0.0 0.0 0.00 0.00 0.00 67 1012.8
20260507074609 33 0 0.0 0.0 0.00 0.00 0.00 67 1012.9
20260507073110 34 0 0.0 1.0 0.00 0.00 0.00 66 1012.9
20260507071610 35 0 0.0 0.0 0.00 0.00 0.00 66 1013.0
20260507070110 35 0 0.0 1.0 0.00 0.00 0.00 65 1013.0